sat.trackr.live / text

‹ back to catalog

SNAP-3 JIMI

NORAD 40975 · 2015-058M

PAYLOAD ACTIVE UNKNOWN

§ Identity

Operator
Country
US
Launch date
2015-10-08
Launch site
AFWTR
Launch vehicle
Mass (kg)
RCS (m²)

Purposes: tech_demo

External: N2YO · Heavens-Above · Gunter

§ Orbital elements

Epoch: 2026-09-20T00:27:01.373760Z

Period
95.80 min
Inclination
64.7638°
Eccentricity
0.0114117
Mean motion
15.03180502 rev/d
Perigee alt
478.0 km
Apogee alt
636.2 km
Semi-major
6,935.2 km
B*
2.4929e-4
RAAN
279.4916°
Arg perigee
18.8737°
Mean anomaly
341.6557°
Rev number
12,847

§ Raw data

SNAP-3 JIMI1 40975U 15058M   26263.01876590  .00003704  00000+0  24929-3 0  99912 40975  64.7638 279.4916 0114117  18.8737 341.6557 15.03180502128476

JSON: /api/v1/satellites/40975 · /tle

For live sub-satellite position, see the globe view (requires WebGL).

§ Visibility from observer

Set your observer location to see the next 7 days of passes ≥ 10°. The values pass through the URL so the page stays shareable.

No JS? Fill the form by hand. The geolocation button needs JavaScript.